Temperature
8 7 7 7 7 8 8 8 7 7 6 5 4 4 5 4 3 3 3 3 3 4 5 4 4 4 4 4 4 4 4 4 3 3 3 3 3 3 3 3 3 3 3 3
7 7 7 7 7 7 7 7 6 6 5 5 4 4 4 3 3 3 3 3 3 3 4 4 4 4 4 4 4 4 3 3 3 3 3 3 3 2 2 2 2 2 2 2
8 7 7 7 7 7 6 6 6 6 5 5 4 5 4 4 3 3 3 3 3 3 3 4 4 3 3 3 3 3 3 3 3 2 2 2 2 2 2 2 2 1 1 1
6 6 6 7 6 7 7 6 6 5 5 4 5 5 5 4 3 2 2 2 3 3 3 3 3 3 3 3 3 3 2 2 2 2 2 2 1 1 1 1 1 1 1 1
6 5 6 6 6 6 6 5 5 5 4 4 3 4 4 3 3 3 2 2 2 3 3 3 3 3 3 3 2 2 2 2 2 1 1 1 1 1 1 0 0 0 0 -0
5 5 5 5 5 5 5 5 4 3 3 4 4 3 4 3 3 3 3 2 2 3 3 3 3 3 2 2 2 1 1 1 1 1 0 0 0 0 0 -0 -0 -0 -0 -1
5 5 4 4 4 5 5 5 5 5 4 4 3 3 4 3 2 2 2 2 2 3 2 2 2 2 2 2 1 1 1 1 0 0 0 -0 -0 -0 -1 -1 -1 -1 -1 -1
5 5 4 4 4 4 4 5 5 5 5 4 3 3 3 2 1 1 2 2 2 2 2 2 2 1 1 1 1 1 0 0 -0 -0 -0 -1 -1 -1 -1 -1 -1 -1 -1 -1
4 5 3 3 3 4 3 3 4 3 3 3 3 2 2 1 1 0 0 1 1 1 1 1 1 1 1 1 0 0 -0 -0 -1 -1 -1 -1 -1 -1 -2 -2 -2 -2 -2 -2
4 4 3 3 3 3 3 3 2 3 4 4 3 2 3 2 1 0 -1 -1 0 1 1 1 0 0 -0 -0 -0 -0 -1 -1 -1 -1 -1 -2 -2 -2 -2 -2 -2 -3 -3 -3
3 3 2 2 2 3 2 2 2 2 3 3 3 4 2 1 1 -0 -1 -0 -0 0 0 0 -0 -0 -1 -1 -1 -1 -1 -2 -2 -2 -2 -2 -2 -3 -3 -3 -3 -3 -3 -3
2 1 1 2 1 1 2 2 2 3 2 1 2 3 1 -1 -1 -1 -1 -1 -1 -1 -0 -1 -1 -1 -2 -2 -2 -2 -2 -2 -2 -2 -3 -3 -3 -3 -3 -3 -3 -3 -4 -4
1 1 2 3 2 0 1 1 1 1 1 0 1 3 -0 -2 -2 -2 -2 -2 -2 -2 -2 -2 -2 -2 -2 -2 -3 -3 -3 -3 -3 -3 -3 -3 -3 -4 -4 -4 -4 -4 -4 -4
2 1 2 3 3 1 0 0 0 1 1 1 1 2 1 -1 -2 -3 -2 -2 -2 -2 -3 -3 -3 -3 -3 -3 -3 -3 -3 -3 -3 -4 -4 -4 -4 -4 -4 -4 -5 -5 -5 -5
1 0 0 1 1 1 1 1 0 0 1 1 1 1 1 -1 -2 -3 -3 -3 -3 -4 -4 -4 -4 -4 -4 -4 -4 -4 -4 -4 -4 -4 -4 -4 -4 -5 -5 -5 -5 -5 -5 -5
-0 -0 -1 -0 -0 -0 0 0 -0 0 0 -0 0 0 -1 -2 -2 -3 -4 -4 -4 -4 -4 -4 -5 -5 -5 -4 -4 -4 -4 -4 -5 -5 -5 -5 -5 -5 -5 -6 -6 -6 -6 -6
-2 -1 -1 -0 -1 -1 -0 -1 -1 -1 -2 -1 -0 -1 -3 -3 -4 -4 -4 -4 -4 -4 -4 -5 -5 -5 -5 -5 -5 -5 -5 -5 -5 -5 -6 -6 -6 -6 -6 -6 -6 -6 -6 -6
-2 -2 -2 -2 -1 -0 0 -2 -2 -2 -3 -3 -3 -3 -4 -4 -4 -4 -4 -4 -4 -4 -5 -5 -5 -5 -5 -5 -5 -5 -6 -6 -6 -6 -6 -7 -7 -7 -7 -7 -7 -7 -7 -7
-3 -2 -2 -2 -1 -1 -1 -3 -3 -3 -3 -4 -4 -4 -5 -5 -5 -5 -4 -4 -4 -5 -5 -5 -5 -5 -6 -6 -6 -6 -6 -6 -7 -7 -7 -7 -7 -7 -7 -7 -7 -8 -8 -8
-4 -3 -2 -2 -1 -1 -1 -4 -4 -3 -3 -4 -5 -5 -6 -6 -5 -5 -4 -5 -5 -5 -5 -6 -6 -6 -6 -6 -7 -7 -7 -7 -7 -7 -7 -8 -8 -8 -8 -8 -8 -8 -8 -8
-4 -4 -4 -3 -2 -2 -4 -5 -4 -2 -2 -5 -5 -6 -7 -6 -5 -5 -5 -5 -6 -6 -6 -6 -6 -7 -7 -7 -7 -7 -7 -7 -8 -8 -8 -8 -8 -8 -8 -8 -9 -9 -9 -9
-4 -4 -4 -4 -3 -3 -6 -6 -5 -5 -5 -6 -6 -6 -6 -6 -6 -6 -6 -6 -6 -6 -7 -7 -7 -7 -8 -8 -8 -8 -8 -8 -8 -8 -8 -8 -8 -9 -9 -9 -9 -9 -9 -9
-6 -5 -5 -4 -4 -6 -7 -6 -6 -6 -6 -6 -6 -6 -6 -7 -7 -7 -7 -7 -7 -7 -7 -8 -8 -8 -8 -8 -9 -9 -9 -9 -9 -9 -9 -9 -9 -9 -9 -9 -9 -9 -10 -10
-8 -8 -7 -7 -7 -7 -7 -6 -6 -6 -6 -7 -7 -7 -7 -7 -8 -8 -8 -8 -8 -8 -8 -8 -8 -9 -9 -9 -9 -9 -9 -9 -9 -9 -9 -9 -9 -9 -9 -10 -10 -10 -10 -10
-8 -9 -8 -8 -8 -8 -7 -7 -7 -7 -7 -7 -8 -8 -8 -8 -8 -8 -8 -8 -9 -9 -9 -9 -9 -9 -9 -9 -9 -10 -10 -10 -10 -10 -10 -10 -10 -10 -10 -10 -10 -10 -10 -11
-9 -9 -9 -7 -8 -8 -8 -7 -8 -8 -8 -8 -8 -8 -8 -8 -9 -9 -9 -9 -9 -9 -9 -9 -10 -9 -10 -10 -10 -10 -10 -10 -10 -10 -10 -10 -10 -10 -10 -10 -10 -10 -11 -11
Wind_Speed
2 3 5 8 9 5 4 5 6 5 2 4 8 11 10 6 7 8 8 8 9 8 5 4 5 5 5 5 5 5 4 4 4 3 2 2 1 2 3 4 5 5 6 5
2 5 7 4 3 3 3 5 6 4 1 4 6 10 9 7 8 9 11 11 10 7 4 5 5 6 6 6 5 5 5 4 4 3 2 1 2 1 2 3 4 5 5 5
7 4 2 4 3 4 6 7 6 5 3 1 4 8 6 5 4 6 7 7 8 10 9 8 7 7 6 6 6 5 5 4 4 4 3 3 2 2 1 1 2 4 4 5
4 2 2 3 5 6 7 5 5 4 2 5 2 6 7 5 5 6 7 7 8 8 8 8 8 8 7 7 6 5 5 4 4 5 4 4 2 1 1 1 1 3 4 4
4 2 2 4 4 5 4 1 2 3 4 4 3 5 8 2 6 8 7 8 8 8 8 8 8 8 7 6 6 5 5 4 4 5 5 4 2 1 1 0 1 2 3 3
2 1 2 3 0 2 3 3 3 2 2 5 6 7 7 5 7 5 5 6 7 7 7 6 5 5 5 5 5 5 5 4 4 5 4 4 4 3 1 0 0 1 1 2
3 2 1 1 2 2 2 3 2 2 2 7 3 5 9 6 4 5 6 5 5 6 6 6 6 6 6 6 6 6 6 5 5 5 4 4 4 4 3 2 1 1 1 1
3 5 3 2 3 4 4 5 5 5 5 5 2 7 7 3 2 2 2 2 3 4 5 6 6 6 6 7 7 6 6 5 5 5 4 4 3 3 2 2 2 2 2 2
4 5 1 1 1 5 4 4 3 3 1 4 6 7 7 2 2 1 0 1 2 3 4 4 4 4 5 6 6 6 6 5 4 5 4 4 3 3 2 2 2 1 2 2
4 4 3 1 1 1 2 5 4 4 3 5 6 5 5 4 4 2 1 2 2 2 2 3 3 3 4 4 3 4 5 5 4 4 3 3 3 3 2 2 2 2 2 2
2 3 3 1 5 6 3 3 4 4 4 4 5 7 3 4 4 4 3 2 2 2 3 2 2 2 3 3 3 3 3 4 3 3 3 2 2 2 2 2 3 2 2 2
1 2 4 6 3 2 4 5 6 5 5 4 4 7 1 1 1 1 1 0 1 2 2 2 2 3 3 2 2 2 2 3 3 3 3 2 2 2 2 2 3 2 2 3
2 2 2 4 2 1 2 3 4 3 2 4 5 7 1 3 2 1 0 0 0 2 2 2 2 2 2 2 2 2 2 2 2 2 2 2 2 2 2 3 2 2 2 3
1 4 7 9 6 4 5 5 5 5 5 6 10 10 7 4 3 2 1 1 1 1 2 2 1 1 1 1 1 1 1 1 2 2 2 2 2 2 2 2 2 3 3 3
2 5 6 8 7 5 8 8 8 10 10 10 11 11 10 6 5 4 2 1 1 2 2 2 2 1 1 0 0 0 1 1 1 1 1 2 2 2 2 2 3 3 3 3
1 3 3 6 5 6 8 8 9 11 9 11 11 12 6 5 2 2 3 2 3 3 3 2 2 1 1 1 1 1 1 1 1 1 1 1 1 1 2 2 3 3 3 3
3 2 2 5 4 4 7 6 7 5 6 6 11 10 4 4 4 4 4 4 4 3 3 2 2 2 2 2 1 2 2 1 1 1 1 2 2 2 3 3 3 3 3 3
5 4 2 3 2 6 6 1 3 5 6 5 5 5 4 4 4 3 3 3 3 2 2 2 2 2 1 1 1 1 1 1 1 2 2 2 2 3 3 3 3 4 3 4
5 5 3 2 4 8 5 1 1 4 6 3 6 5 4 3 4 3 1 1 2 3 3 2 2 2 1 1 1 1 1 1 1 2 3 3 3 3 3 4 4 4 3 4
2 2 3 3 4 6 4 3 3 1 5 2 2 5 3 2 2 4 1 2 2 1 0 1 1 1 1 1 1 1 2 2 3 3 3 3 3 4 4 5 4 4 4 5
1 1 4 5 6 6 3 3 1 2 5 4 2 3 2 3 5 3 2 3 2 1 1 0 1 1 1 1 1 1 2 3 4 3 3 3 4 4 4 4 3 3 4 4
4 4 4 4 5 6 2 2 2 4 4 4 3 2 2 3 3 3 3 2 2 2 2 0 0 1 1 1 1 2 3 4 3 3 3 4 3 3 3 3 3 3 3 4
3 3 3 5 4 2 0 1 3 3 4 4 3 3 2 3 3 3 3 2 2 2 1 1 0 1 1 1 2 3 4 3 3 3 4 4 4 3 3 3 4 3 3 3
2 2 1 3 4 4 3 4 5 4 4 4 3 3 3 3 3 3 3 3 3 2 1 1 0 1 2 2 3 3 3 2 2 3 4 4 3 4 3 3 3 3 4 4
3 1 2 4 5 6 5 4 6 6 4 4 4 3 3 2 3 3 3 3 3 3 2 2 2 2 3 3 3 3 2 2 2 3 4 4 4 4 4 4 4 5 5 6
2 2 3 5 5 5 7 5 5 5 5 5 4 4 3 2 3 3 4 3 3 3 2 2 2 3 3 3 3 3 2 2 2 3 4 3 3 3 3 3 4 7 7 9
Wind_Direction
73 106 207 213 208 215 199 212 243 250 199 199 236 255 259 227 213 219 216 212 210 212 204 174 169 160 147 143 141 144 134 126 118 108 115 111 91 62 47 42 44 42 40 44
63 236 230 198 197 209 213 238 258 275 221 223 261 266 257 227 217 214 214 214 209 198 183 177 167 160 162 163 163 158 154 142 139 137 135 131 128 104 65 45 43 40 41 41
204 232 187 172 187 211 224 222 238 251 320 263 301 288 257 243 222 218 214 210 202 197 194 188 180 176 172 176 177 175 168 153 147 129 108 89 82 71 57 32 21 20 35 37
234 252 171 191 216 197 243 227 219 220 247 266 212 279 268 248 250 230 222 210 204 200 195 190 184 181 183 186 177 173 171 159 149 139 142 143 148 159 202 218 327 9 27 24
246 208 185 216 231 198 216 152 188 215 214 266 218 239 277 260 252 244 226 215 209 201 194 193 190 186 182 177 172 172 167 161 154 151 157 156 155 164 153 116 38 11 9 11
247 245 206 208 271 175 137 81 63 66 113 259 216 203 271 230 227 241 226 215 209 198 194 190 183 169 170 166 167 166 167 163 160 159 162 166 167 160 147 147 8 351 343 353
293 270 265 119 90 64 114 102 2 321 256 250 187 210 250 247 234 228 224 219 209 192 183 181 177 176 177 174 175 173 170 169 169 168 174 179 177 175 185 204 219 262 301 311
258 274 221 196 184 179 190 164 182 223 239 272 228 233 253 264 305 293 230 199 177 172 178 184 185 181 181 181 179 177 176 177 174 178 185 182 173 176 195 212 217 228 248 271
215 254 346 314 260 155 162 201 174 152 255 270 257 273 293 283 334 358 65 134 187 178 177 180 177 177 178 181 183 181 178 179 183 185 182 178 178 180 192 211 223 229 257 284
188 252 279 314 64 358 175 153 126 163 220 258 274 262 253 264 266 276 265 228 207 163 158 162 168 170 168 173 173 168 171 179 184 180 182 185 188 193 197 203 221 242 266 281
170 211 287 292 204 202 157 169 177 176 199 207 264 266 229 225 230 227 236 229 186 170 167 165 160 152 140 136 140 144 156 162 174 180 177 181 190 191 190 214 225 233 255 268
153 161 248 248 242 234 200 196 169 188 228 213 236 269 338 229 274 212 255 248 152 159 149 135 130 122 123 131 133 138 148 154 173 176 170 182 187 186 204 229 239 239 247 262
162 153 300 316 311 335 237 225 202 170 162 201 224 262 33 17 9 39 163 262 128 124 116 107 107 122 135 143 145 143 147 146 148 158 166 177 192 204 221 237 251 250 247 258
191 195 214 238 256 233 242 236 209 184 214 232 237 259 279 301 303 307 300 252 200 162 154 146 132 133 139 145 149 159 156 143 138 147 173 195 209 220 231 243 252 253 250 253
160 233 243 260 272 256 248 239 217 215 219 230 252 254 266 262 254 254 255 240 184 189 179 173 171 173 160 124 181 217 198 160 152 160 197 227 228 224 241 251 255 260 260 263
189 238 258 272 270 275 270 254 229 229 235 243 260 268 279 284 264 257 251 235 230 221 212 202 195 191 203 213 248 270 251 213 166 187 234 250 237 240 251 256 259 265 267 270
201 199 247 273 308 322 269 245 216 218 224 221 242 257 283 295 270 250 240 229 227 228 220 215 220 220 228 234 240 241 254 235 200 226 249 254 254 261 265 266 265 264 265 264
189 188 216 275 356 256 257 147 193 221 244 235 252 275 269 269 285 273 226 205 229 248 244 229 218 231 244 234 246 252 269 227 221 241 254 257 256 263 270 266 264 264 264 262
194 179 193 213 249 272 291 332 179 219 261 249 248 274 300 335 349 318 236 193 235 246 242 224 212 218 208 208 228 238 268 253 241 251 257 260 262 264 266 264 265 270 266 268
107 154 189 203 227 247 283 324 309 157 282 317 258 270 293 13 298 278 307 314 299 306 255 217 186 170 191 227 207 221 262 260 260 260 261 265 263 261 259 260 265 269 265 267
143 178 208 223 238 261 311 317 48 168 280 322 290 270 244 234 245 284 317 321 319 319 316 276 170 205 221 212 202 254 261 262 269 278 275 273 267 265 262 259 261 262 268 275
195 198 210 200 228 260 356 76 174 257 311 323 311 290 261 270 294 303 314 317 326 330 337 328 228 276 267 221 219 263 271 281 289 287 286 279 275 273 274 258 264 263 260 267
210 218 219 209 226 311 109 226 291 321 307 309 310 304 278 279 289 301 307 306 308 304 300 298 240 286 291 258 236 260 283 294 295 291 287 286 284 280 275 256 259 265 255 260
303 329 264 274 286 300 295 312 319 318 303 309 312 308 292 271 274 289 298 307 308 301 291 300 263 281 289 288 287 276 285 290 284 283 286 286 282 281 278 270 261 259 259 262
290 307 285 276 297 314 305 311 314 323 329 324 321 311 289 260 276 281 288 291 291 294 300 286 259 269 280 289 295 299 293 280 285 285 282 283 278 274 276 274 263 264 254 253
300 259 257 269 289 286 294 319 332 327 319 314 317 320 319 284 276 284 285 288 288 288 293 286 281 281 286 292 295 296 288 271 267 281 285 281 275 273 276 280 290 284 283 286
Height
1485 1489 1491 1489 1489 1489 1490 1493 1494 1493 1493 1495 1494 1491 1487 1487 1487 1486 1486 1487 1487 1489 1492 1494 1495 1497 1499 1501 1503 1505 1507 1508 1510 1511 1512 1513 1513 1514 1515 1516 1516 1516 1516 1516
1488 1489 1485 1486 1488 1489 1491 1493 1494 1493 1493 1494 1493 1489 1483 1482 1481 1480 1480 1481 1482 1485 1487 1489 1491 1493 1495 1497 1500 1502 1504 1505 1507 1508 1510 1511 1511 1512 1513 1513 1513 1514 1514 1514
1484 1484 1483 1485 1487 1489 1490 1492 1491 1493 1493 1494 1494 1485 1480 1476 1476 1476 1477 1477 1479 1480 1482 1485 1487 1490 1492 1494 1496 1498 1501 1502 1504 1506 1507 1508 1509 1510 1510 1511 1511 1511 1511 1511
1484 1483 1483 1484 1485 1486 1487 1486 1488 1491 1494 1495 1494 1490 1477 1475 1474 1472 1473 1474 1474 1476 1479 1481 1483 1486 1488 1491 1494 1496 1498 1500 1501 1503 1504 1505 1505 1506 1507 1507 1508 1509 1509 1509
1482 1482 1482 1483 1482 1483 1484 1485 1488 1490 1493 1496 1495 1494 1478 1475 1472 1468 1468 1469 1470 1472 1475 1477 1480 1482 1485 1488 1491 1493 1495 1496 1498 1499 1501 1502 1503 1504 1504 1505 1505 1506 1506 1506
1482 1481 1481 1481 1481 1482 1484 1487 1490 1494 1495 1493 1489 1493 1477 1474 1467 1464 1465 1465 1467 1469 1472 1474 1477 1480 1483 1485 1487 1490 1491 1493 1495 1496 1498 1499 1500 1501 1501 1502 1502 1502 1503 1503
1482 1481 1480 1480 1482 1483 1484 1488 1492 1491 1495 1488 1487 1487 1474 1465 1463 1462 1462 1463 1464 1467 1469 1471 1474 1476 1479 1481 1484 1486 1488 1490 1492 1493 1495 1496 1497 1498 1498 1499 1499 1499 1499 1499
1484 1482 1480 1480 1480 1482 1484 1484 1488 1490 1489 1487 1488 1484 1469 1463 1462 1461 1461 1462 1463 1464 1466 1469 1471 1473 1476 1478 1481 1483 1485 1486 1488 1490 1492 1493 1494 1494 1495 1496 1496 1495 1495 1495
1484 1481 1481 1479 1479 1480 1484 1485 1485 1490 1494 1494 1484 1479 1469 1461 1461 1461 1461 1461 1462 1463 1465 1467 1469 1471 1473 1475 1477 1480 1481 1483 1485 1487 1488 1489 1490 1491 1492 1492 1492 1492 1492 1491
1482 1484 1481 1480 1480 1480 1481 1483 1489 1488 1487 1485 1477 1477 1468 1462 1461 1461 1461 1460 1461 1463 1464 1466 1468 1469 1471 1473 1475 1477 1478 1479 1481 1483 1484 1485 1486 1487 1488 1488 1488 1488 1488 1488
1482 1484 1483 1482 1481 1479 1482 1484 1482 1485 1485 1485 1482 1469 1461 1460 1459 1460 1460 1460 1460 1462 1463 1464 1466 1467 1469 1471 1472 1473 1475 1476 1477 1479 1480 1481 1482 1483 1484 1484 1484 1484 1484 1484
1482 1485 1485 1480 1478 1477 1477 1478 1481 1482 1483 1486 1482 1468 1460 1460 1459 1459 1460 1460 1460 1461 1462 1463 1464 1465 1467 1468 1469 1470 1472 1473 1474 1475 1476 1478 1478 1479 1480 1480 1480 1480 1480 1479
1482 1484 1483 1476 1480 1481 1479 1478 1477 1478 1481 1484 1481 1465 1461 1460 1459 1459 1460 1460 1460 1460 1461 1462 1462 1463 1464 1466 1467 1468 1469 1470 1471 1472 1473 1474 1474 1475 1475 1475 1476 1475 1475 1475
1477 1481 1479 1473 1468 1473 1477 1475 1475 1477 1477 1476 1469 1460 1458 1459 1459 1459 1459 1459 1459 1460 1460 1460 1461 1462 1463 1464 1465 1466 1467 1467 1468 1469 1469 1470 1470 1471 1471 1471 1471 1471 1471 1471
1477 1478 1476 1472 1470 1470 1468 1468 1470 1470 1467 1466 1459 1458 1454 1456 1457 1457 1457 1457 1458 1458 1458 1458 1459 1460 1461 1462 1463 1464 1464 1465 1465 1465 1466 1466 1467 1467 1467 1467 1467 1466 1466 1466
1476 1477 1476 1472 1469 1469 1466 1464 1464 1463 1463 1461 1458 1455 1453 1454 1455 1455 1455 1455 1455 1455 1456 1456 1457 1458 1459 1459 1460 1461 1461 1462 1462 1462 1463 1463 1463 1463 1463 1463 1462 1462 1462 1461
1476 1477 1476 1471 1471 1467 1464 1460 1460 1460 1460 1459 1457 1453 1453 1453 1453 1452 1452 1452 1452 1453 1453 1454 1455 1456 1456 1457 1458 1458 1459 1459 1459 1459 1459 1459 1459 1459 1459 1458 1458 1457 1457 1456
1474 1475 1476 1474 1473 1469 1455 1456 1456 1457 1456 1457 1455 1452 1452 1451 1450 1450 1450 1450 1451 1451 1452 1452 1453 1453 1454 1455 1456 1456 1456 1456 1456 1456 1456 1456 1456 1455 1455 1454 1454 1453 1452 1452
1469 1472 1475 1474 1471 1462 1456 1456 1457 1457 1454 1453 1452 1451 1451 1450 1449 1448 1448 1449 1450 1450 1450 1450 1451 1451 1452 1452 1453 1453 1453 1453 1453 1453 1453 1452 1452 1451 1451 1450 1449 1449 1448 1447
1470 1470 1473 1472 1467 1460 1455 1457 1454 1456 1454 1451 1451 1450 1450 1450 1452 1448 1447 1447 1448 1448 1448 1448 1448 1448 1448 1449 1449 1449 1449 1449 1449 1449 1449 1449 1448 1447 1446 1446 1445 1444 1443 1443
1472 1473 1473 1471 1467 1460 1460 1457 1455 1459 1454 1451 1450 1449 1449 1449 1448 1447 1445 1445 1445 1445 1445 1445 1445 1445 1445 1446 1446 1446 1446 1446 1446 1446 1445 1445 1444 1443 1443 1442 1441 1440 1439 1438
1469 1471 1471 1469 1466 1462 1460 1459 1460 1457 1453 1451 1449 1448 1447 1446 1445 1444 1443 1443 1442 1442 1442 1442 1442 1442 1442 1443 1443 1442 1442 1443 1443 1442 1441 1441 1440 1440 1439 1438 1437 1436 1435 1434
1470 1469 1465 1465 1463 1461 1459 1458 1456 1454 1452 1449 1448 1447 1445 1444 1443 1442 1441 1440 1440 1440 1440 1439 1439 1439 1439 1440 1440 1439 1439 1439 1439 1438 1438 1437 1437 1436 1435 1434 1433 1432 1431 1430
1470 1468 1467 1465 1460 1459 1458 1456 1454 1453 1450 1448 1447 1445 1444 1442 1441 1440 1439 1438 1438 1437 1437 1437 1436 1436 1436 1436 1437 1436 1436 1436 1435 1434 1434 1433 1433 1432 1431 1430 1430 1429 1428 1427
1470 1469 1468 1465 1461 1458 1455 1454 1453 1451 1448 1446 1445 1444 1442 1440 1439 1438 1437 1436 1436 1435 1435 1434 1433 1433 1433 1433 1433 1433 1433 1432 1431 1431 1430 1429 1429 1428 1427 1427 1426 1425 1425 1424
1470 1470 1468 1463 1461 1460 1456 1453 1452 1449 1447 1445 1443 1441 1440 1439 1437 1436 1435 1434 1433 1433 1432 1431 1431 1430 1430 1430 1430 1430 1429 1429 1428 1427 1426 1426 1425 1424 1424 1423 1422 1421 1421 1420